This is the latest recevied weather packets stored in our database for station/object SR9NLI. If no packets are shown the sender has not sent any weather packets the latest 1 day(s).
| Time | Temp. | Humidity | Pressure | Rain* | Wind** | Luminosity | Snow |
|---|---|---|---|---|---|---|---|
| 1777962252 | 17.78° C | 100% | 952.9 hPa | - | 2.24 m/s, 2° | - | - |
| 1777962129 | 17.22° C | 100% | 952.9 hPa | - | 2.24 m/s, 2° | - | - |
| 1777962006 | 17.22° C | 100% | 953 hPa | - | 1.79 m/s, 25° | - | - |
| 1777961946 | 17.22° C | 100% | 953 hPa | - | 2.24 m/s, 41° | - | - |
| 1777961883 | 17.22° C | 100% | 953.1 hPa | - | 2.24 m/s, 50° | - | - |
| 1777961760 | 16.67° C | 100% | 952.9 hPa | - | 1.79 m/s, 52° | - | - |
| 1777961637 | 16.67° C | 100% | 952.9 hPa | - | 1.34 m/s, 48° | - | - |
| 1777961576 | 16.67° C | 100% | 952.9 hPa | - | 1.34 m/s, 50° | - | - |
| 1777961514 | 16.67° C | 100% | 952.9 hPa | - | 1.34 m/s, 59° | - | - |
| 1777961390 | 16.67° C | 100% | 953.1 hPa | - | 1.79 m/s, 81° | - | - |
| 1777961268 | 16.67° C | 100% | 953 hPa | - | 1.79 m/s, 107° | - | - |
| 1777961207 | 16.67° C | 100% | 952.9 hPa | - | 1.79 m/s, 110° | - | - |
| 1777961145 | 16.67° C | 100% | 953 hPa | - | 1.79 m/s, 107° | - | - |
| 1777961022 | 16.67° C | 100% | 953 hPa | - | 2.24 m/s, 91° | - | - |
| 1777960899 | 16.67° C | 100% | 953 hPa | - | 2.24 m/s, 81° | - | - |
| 1777960839 | 16.67° C | 100% | 952.9 hPa | - | 2.24 m/s, 82° | - | - |
| 1777960658 | 16.67° C | 100% | 953 hPa | - | 1.79 m/s, 89° | - | - |
| 1777960597 | 16.67° C | 100% | 953 hPa | - | 1.34 m/s, 91° | - | - |
| 1777960535 | 16.67° C | 100% | 952.9 hPa | - | 1.79 m/s, 87° | - | - |
| 1777960412 | 16.67° C | 100% | 953 hPa | - | 0.89 m/s, 70° | - | - |
| 1777960288 | 16.11° C | 100% | 953.1 hPa | - | 0.89 m/s, 70° | - | - |
| 1777960228 | 15.56° C | 100% | 953.1 hPa | - | 1.34 m/s, 69° | - | - |
| 1777960166 | 15.56° C | 100% | 953.1 hPa | - | 1.79 m/s, 74° | - | - |
| 1777960043 | 15.56° C | 100% | 953 hPa | - | 2.68 m/s, 76° | - | - |
| 1777959919 | 15° C | 100% | 953.1 hPa | - | 2.24 m/s, 78° | - | - |
* Rain since midnight (hover to see other rain measurements)
** Current wind speed in m/s (hover to see current wind gust speed)